Satellite-Ground Cal/Val Site Overpasses Predictions

Prediction of Satellite NPP Overpassing Cal/Val Site: Antarctic Dome C

Ground Cal/Val Site Location: Latitude: -75.10, Longitude: 123.35; Satellite-Ground Site NADIR distance within 100 km.

Table of predicted overpasses for the next 14.0 days since TLE Epoch: 5/7/2022
Interval Starting Time Ending Time Minimum Distance Time Minimum Distance (km)
1 05/08/2022 15:01:06 05/08/2022 15:01:30 05/08/2022 15:01:18 56.50
2 05/09/2022 14:42:15 05/09/2022 14:42:40 05/09/2022 14:42:27 52.70
3 05/10/2022 07:43:56 05/10/2022 07:44:16 05/10/2022 07:44:06 68.84
4 05/11/2022 07:25:03 05/11/2022 07:25:30 05/11/2022 07:25:16 39.30
5 05/13/2022 15:07:25 05/13/2022 15:07:35 05/13/2022 15:07:30 93.75
6 05/14/2022 14:48:25 05/14/2022 14:48:54 05/14/2022 14:48:40 17.43
7 05/16/2022 07:31:13 05/16/2022 07:31:42 05/16/2022 07:31:28 3.21
8 05/19/2022 14:54:38 05/19/2022 14:55:06 05/19/2022 14:54:52 18.45
